Voltar ao catálogo

STARLINK-34007

AtivoComunicaçõesVLEO
NORAD 63868·PAYLOAD·🇺🇸 United States

Lançado May 10, 2025 de Vandenberg Space Force Base

Loading…

Próximas Passagens (próximas 24 horas)

TLE

AtualizadoSource: CelesTrak SupGP

Época: Sep 15, 2026, 03:42 UTC

1 63868C 25094E   26258.15465278 -.00018146  00000+0 -61526-3 0  2584
2 63868  69.9993 115.0669 0003176 273.1263 152.6791 15.30420068    18

Acompanhe STARLINK-34007 em tempo real com AllMySat

Download on the App Store